Location: Unspecified
(40.7700°N, 0.0000°E)
Time: 02:33:01
(UTC+00:00)

GOSAT - Visible Passes

Search period start: 04 April 2026 00:00
Search period end: 14 April 2026 00:00
Orbit: 668 x 670 km, 98.1° (Epoch: 29 March)

Date Brightness Start Highest point End Pass type
(mag) Time Alt. Az. Time Alt. Az. Time Alt. Az.
9 Apr ? 00:18:15 10° N 00:18:15 10° N 00:18:17 10° N visible
10 Apr ? 23:45:17 11° N 23:45:17 11° N 23:45:30 10° N visible
12 Apr ? 00:17:53 12° N 00:17:53 12° N 00:18:14 10° N visible
13 Apr ? 00:50:29 10° NNW 00:50:29 10° NNW 00:50:32 10° NNW visible
13 Apr ? 23:44:54 13° NNE 23:44:54 13° NNE 23:45:26 10° N visible
